Location: Asheville, NC
(35.6000°N, 82.5500°W)
Time: 20:41:50
(UTC-04:00)

FALCONSAT 3 - Pass Details

Date: 13 March 2018
Orbit: 461 x 464 km, 35.4° (Epoch: 20 June)

Event Time Altitude Azimuth Distance (km) Brightness Sun altitude
Exits shadow 05:02:35 12° 87° (E) 1,510 ? -32.9°
Drops below altitude 10° 05:02:50 10° 86° (E) 1,605 ? -32.9°
Sets 05:05:01 0° 83° (E) 2,481 ? -32.5°
